Regional Weather Roundup
Issued by NWS Midland/Odessa, TX

Skip options and go directly to product.
Home | Oldest Version | Previous Version | Current Version | All | Text Only | Save Text | Print | Product List | Glossary Off

Skip product version selection by date and time.   

570
ASUS44 KMAF 220910
RWRMAF
MIDLAND AREA WEATHER ROUNDUP
NATIONAL WEATHER SERVICE MIDLAND TX
400 AM CDT WED OCT 22 2014

...IN SOUTHWEST TEXAS AND SOUTHEAST NEW MEXICO...

CITY           SKY/WX    TMP DP  RH WIND       PRES   REMARKS
ALPINE         CLOUDY    60  57  89 CALM      30.15S
ANDREWS        CLOUDY    63  58  86 S3        30.09S
ARTESIA        NOT AVBL
BIG SPRING     CLOUDY    64  58  81 E3        30.09F
CARLSBAD       CLOUDY    63  60  90 S5        30.06S
DRYDEN           N/A     65  64  97 E6        30.02F
FORT STOCKTON  MOCLDY    60  58  92 E7        30.06F
GUAD PASS      MOCLDY    56  53  90 SW5       30.16S
HOBBS          CLOUDY    59  59 100 CALM      30.10S
MARFA          CLOUDY    57  55  94 CALM      30.14S
MIDLAND AIRPK  CLOUDY    67  59  74 S6        30.08S
MIDLAND INTL   CLOUDY    66  59  78 S9        30.07S
ODESSA         CLOUDY    65  58  78 S9        30.08S
PECOS          MOCLDY    59  58  94 S5        30.04S
PRESIDIO       PTSUNNY   65  60  83 MISG      30.03S
SEMINOLE       CLOUDY    61  59  94 CALM      30.10S
SNYDER         CLOUDY    63  53  70 SE8       30.08S
WINK           CLOUDY    64  62  93 SE8       30.04F
$$
...OTHER STATIONS IN TEXAS...

CITY           SKY/WX    TMP DP  RH WIND       PRES   REMARKS
ABILENE        MOCLDY    64  48  56 S9        30.07F
AMARILLO       CLOUDY    59  52  77 S9        30.09S
AUSTIN         MOCLDY    57  55  93 CALM      30.05S
BROWNSVILLE    PTCLDY    75  72  90 NE6       29.92F
CORPUS CHRISTI PTCLDY    69  65  86 N7        29.97S
DALLAS FTW     CLEAR     63  58  83 CALM      30.07R
DEL RIO        CLOUDY    70  68  93 CALM      30.00S FOG
EL PASO        MOCLDY    61  55  81 CALM      30.06S
HOUSTON INT    PTCLDY    61  60  97 CALM      30.03S
LUBBOCK        CLOUDY    63  50  62 S7        30.09S
SAN ANGELO     CLOUDY    68  48  48 SE6       30.06S
SAN ANTONIO    MOCLDY    63  52  67 CALM      30.04F
WACO           MOCLDY    61  58  90 NE3       30.07S
WICHITA FALLS  NOT AVBL
$$
...OTHER LOCATIONS IN NEW MEXICO...

CITY           SKY/WX    TMP DP  RH WIND       PRES   REMARKS
ALAMAGORDO     NOT AVBL
ALBUQUERQUE    MOCLDY    53  47  79 E6        30.12S
CANNON AFB     CLOUDY    57  55  94 SW5       30.11S FOG
CLOVIS         CLOUDY    57  54  88 SW6       30.13S
HOLLOMAN AFB   PTCLDY    53  50  89 NE6       30.08S
ROSWELL        CLOUDY    61  60  97 S3        30.08S FOG
RUIDOSO        PTCLDY    45  45 100 SW3       30.21F FOG
SANTA FE       CLOUDY    51  48  89 MISG      30.16R
TRUTH OR CONSE CLEAR     54  50  86 W6        30.10S
TUCUMCARI      CLOUDY    61  56  83 SW7       30.06F
$$

USA.gov is the U.S. government's official web portal to all federal, state and local government web resources and services.